Regional Weather Roundup
Issued by NWS

Home | Current Version | Previous Version | Graphics & Text | Print | Product List | Glossary On
Versions: 1 2 3 4 5 6 7 8 9 10 11 12 13 14 15 16 17 18 19 20 21 22 23 24 25 26 27 28 29 30 31 32 33 34 35 36 37 38 39 40 41 42 43 44 45 46 47 48 49 50
000
ASUS43 KMKX 250631
RWRWI

WISCONSIN REGIONAL WEATHER ROUNDUP
NATIONAL WEATHER SERVICE MILWAUKEE/SULLIVAN WI
200 AM CDT MON MAY 25 2015

NOTE: "FAIR" INDICATES FEW OR NO CLOUDS BELOW 12,000 FEET WITH NO
SIGNIFICANT WEATHER AND/OR OBSTRUCTIONS TO VISIBILITY.

WIZ001-002-006>008-014>016-023>028-250800-
NORTHWEST WISCONSIN

CITY           SKY/WX    TMP DP  RH WIND       PRES   REMARKS
SUPERIOR ARPT  LGT RAIN  51  50  97 E5        29.87F
ASHLAND        CLOUDY    57  57 100 NE6       29.87F FOG
HAYWARD        LGT RAIN  58  55  90 E6        29.85F
SIREN          DRIZZLE   57  56  96 E7        29.81F
CUMBERLAND     DRIZZLE   55  54  94 E8        29.81F
RICE LAKE      DRIZZLE   57  55  92 E8        29.83F
CHETEK         LGT RAIN  56  56  97 E7G16     29.82F
LADYSMITH      LGT RAIN  57  56  97 E7        29.85F
EAU CLAIRE     LGT RAIN  57  55  93 E8        29.79F
MENOMONIE      DRIZZLE   57  56  97 E7        29.80F
NEW RICHMOND   DRIZZLE   57  57 100 E12G21    29.78F
OSCEOLA        RAIN      58  58 100 E9        29.80F
$$

WIZ003>005-009-010-017-018-250800-
NORTH CENTRAL WISCONSIN

CITY           SKY/WX    TMP DP  RH WIND       PRES   REMARKS
MANITOWISH WTR DRIZZLE   56  56 100 E7        29.89F
ARBOR VITAE    RAIN      57  55  95 E6        29.89F
WOODRUFF       RAIN      57  55  95 E6        29.89F
RHINELANDER    LGT RAIN  56  54  93 E10       29.89F
EAGLE RIVER    RAIN      55  55  99 E6        29.90F
LAND O LAKES   RAIN      56  56  98 E7        29.92F
PHILLIPS       LGT RAIN  55  55  99 E7        29.86F
TOMAHAWK       RAIN      55  54  96 E5        29.88F
MEDFORD        RAIN      54  54  99 E8        29.84F
MERRILL        LGT RAIN  56  56 100 E6        29.88F
$$

WIZ029-030-035-036-043>047-250800-
CENTRAL WISCONSIN

CITY           SKY/WX    TMP DP  RH WIND       PRES   REMARKS
WAUSAU         LGT RAIN  55  54  96 SE7       29.84F
MOSINEE        CLOUDY    54  54 100 E8        29.87F
MARSHFIELD     CLOUDY    57  54  89 E10       29.84F
STEVENS POINT  CLOUDY    54  53  98 E9        29.86F
WAUPACA        CLOUDY    58  58  97 E5        29.87F FOG
WAUTOMA        CLOUDY    58  58 100 CALM      29.86F FOG
WISC RAPIDS    LGT RAIN  57  54  89 SE7       29.85F
CAMP DOUGLAS   CLOUDY    57  57 100 SE8       29.80F FOG
$$

WIZ011>013-019>022-031-037>040-048>050-250800-
NORTHEAST WISCONSIN

CITY           SKY/WX    TMP DP  RH WIND       PRES   REMARKS
ANTIGO         RAIN      54  54  99 SE14      29.89F
SHAWANO        LGT RAIN  58  56  95 E6        29.90F
OCONTO         CLOUDY    56  56 100 E3        29.91F
STURGEON BAY   CLOUDY    57  54  88 SE9       29.93F
GREEN BAY      LGT RAIN  59  57  93 SE6       29.89F FOG
MANITOWOC      LGT RAIN  53  53 100 SE5       29.92F
APPLETON       LGT RAIN  55  55 100 E6        29.88F
CLINTONVILLE   LGT RAIN  55  55 100 E6        29.88F
OSHKOSH        CLOUDY    59  57  93 SE7       29.86F FOG
$$

WIZ032>034-041-042-053>061-250800-
SOUTHWEST WISCONSIN

CITY           SKY/WX    TMP DP  RH WIND       PRES   REMARKS
LA CROSSE      LGT RAIN  60  58  92 E5        29.77F FOG
SPARTA         CLOUDY    58  57  95 E8        29.79F FOG
VIROQUA        CLOUDY    59  59 100 SE13G18   29.79F VSB 1/2
BOSCOBEL       CLOUDY    61  59  93 N3        29.79F FOG
PRAIRIE DU CHI CLOUDY    66  63  90 SE9       29.76F
PLATTEVILLE    CLOUDY    64  63  98 SE7       29.80F
$$

WIZ056-057-062-063-064-067-068-250800-
SOUTH CENTRAL WISCONSIN

CITY           SKY/WX    TMP DP  RH WIND       PRES   REMARKS
REEDSBURG      CLOUDY    58  58  99 CALM      29.81F FOG
BARABOO/DELLS  CLOUDY    58  56  94 CALM      29.82F FOG
LONE ROCK      CLOUDY    61  59  93 E7        29.82F FOG
MINERAL POINT  CLOUDY    64  63  94 SE7       29.82F FOG
MADISON        LGT RAIN  63  61  93 S8        29.83F FOG
MIDDLETON      CLOUDY    61  61  99 SE5       29.84F
WATERTOWN      CLOUDY    60  60 100 SE5       29.86F FOG
MONROE         LGT RAIN  66  64  94 S13       29.84F
JANESVILLE     RAIN      64  63  94 SE6       29.85F
$$

WIZ051-052-058>065-066-070>072-250800-
SOUTHEAST WISCONSIN

CITY           SKY/WX    TMP DP  RH WIND       PRES   REMARKS
MILWAUKEE      CLOUDY    58  56  93 NW6       29.90F FOG
WAUKESHA       DRIZZLE   55  55 100 SE3       29.90F
MILWAUKEE/TIMM RAIN      57  54  88 SE3       29.89F
RACINE         MOCLDY    58  56  93 CALM      29.90F FOG
BURLINGTON     LGT RAIN  59  59  99 E3        29.88F
KENOSHA        MOCLDY    64  61  90 S3        29.89F
FOND DU LAC    CLOUDY    59  56  89 SE7       29.86F
SHEBOYGAN      LGT RAIN  54  54 100 CALM      29.90F FOG
WEST BEND      RAIN      55  54  94 CALM      29.88F
JUNEAU         CLOUDY    59  58  98 SE9       29.87F FOG
$$

LSZ147-162-250800-
LAKE SUPERIOR

STATION/POSITION TIME  TEMP    WIND        PRES    WAVE
                       AIR SEA DIR/SP/G            HT/PER
                 (UTC) (F)     (DEG/KT/KT) (MB)    (FT/S)
W MID LAKE BUOY  0550   46 37   10/  4/  4   N/A     0
DEVILS ISLAND    0600   60     120/  2/  2   N/A
PORT WING        0500   51      40/  8/ 10   N/A
SAXON HARBOR     0540   55        CALM       N/A
$$

LMZ867-665-643>646-250800-
LAKE MICHIGAN

STATION/POSITION TIME  TEMP    WIND        PRES    WAVE
                       AIR SEA DIR/SP/G            HT/PER
                 (UTC) (F)     (DEG/KT/KT) (MB)    (FT/S)
CHAMBERS ISLAND  0500   54      60/  7/ 10   N/A
N MID LAKE BUOY  0550   45 36  110/ 10/ 12   N/A     1/ 4
NORTHPORT PIER   0500   49      90/  5/  8   N/A
SISTER BAY       0547   54     130/  9/ 15   N/A
KEWAUNEE LAKESHO 0600   51      40/  8/  9   N/A
SHEBOYGAN LAKESH 0600   52     130/  3/  3   N/A
PORT WASHINGTON  0520   55     360/  1/  9   N/A
ATWATER BUOY     0600   51 46  350/  6/  6   N/A
MILWAUKEE LAKESH 0600   57     330/  4/  6   N/A
S MID LAKE BUOY  0550   47 38  170/ 10/ 12   N/A     1
KENOSHA   LAKESH 0400   60     250/  6/ 15   N/A
$$

TC  - TEMPERATURE IN CELSIUS
VSB - VISIBILITY IN STATUTE MILES
WCI - WIND CHILL INDEX
HX  - HEAT INDEX




USA.gov is the U.S. government's official web portal to all federal, state and local government web resources and services.